Overview Statistics Trail Chart Weather Telemetry Raw packets
 

This is the latest recevied weather packets stored in our database for station/object K5SVV. If no packets are shown the sender has not sent any weather packets the latest 10 day(s).

<< 30 31 32 33 34 35 36 >>
Time Temp. Humidity Pressure Rain* Wind** Luminosity Snow
1788453661 28.33° C 82% 1013.8 hPa 0 mm - 106 W/m² -
1788453361 28.33° C 82% 1013.9 hPa 0 mm - 171 W/m² -
1788453057 28.33° C 82% 1013.6 hPa 0 mm - 149 W/m² -
1788452753 28.33° C 82% 1013.7 hPa 0 mm - 134 W/m² -
1788452449 28.33° C 82% 1013.6 hPa 0 mm - 141 W/m² -
1788452144 27.78° C 82% 1013.6 hPa 0 mm - 150 W/m² -
1788451840 27.78° C 82% 1013.4 hPa 0 mm - 132 W/m² -
1788451538 27.78° C 82% 1013.5 hPa 0 mm - 110 W/m² -
1788451233 27.78° C 83% 1013.5 hPa 0 mm - 88 W/m² -
1788450926 27.78° C 84% 1013.7 hPa 0 mm - 84 W/m² -
1788450622 27.78° C 84% 1013.3 hPa 0 mm - 85 W/m² -
1788450318 27.78° C 83% 1013.5 hPa 0 mm - 85 W/m² -
1788450014 27.78° C 83% 1013.5 hPa 0 mm - 89 W/m² -
1788449709 27.78° C 84% 1013.5 hPa 0 mm - 88 W/m² -
1788449405 27.78° C 84% 1013.3 hPa 0 mm - 94 W/m² -
1788449101 27.78° C 84% 1013.4 hPa 0 mm - 88 W/m² -
1788448797 27.78° C 85% 1013.4 hPa 0 mm - 108 W/m² -
1788448490 27.78° C 85% 1013.4 hPa 0 mm - 103 W/m² -
1788448186 27.78° C 85% 1013.4 hPa 0 mm - 78 W/m² -
1788447885 27.78° C 85% 1013.5 hPa 0 mm - 85 W/m² -
1788447580 27.78° C 84% 1013.5 hPa 0 mm - 89 W/m² -
1788447275 27.78° C 84% 1013.2 hPa 0 mm - 96 W/m² -
1788446970 27.78° C 84% 1013.4 hPa 0 mm - 127 W/m² -
1788446670 27.78° C 84% 1013.4 hPa 0 mm - 138 W/m² -
1788446366 27.78° C 84% 1013.4 hPa 0 mm - 111 W/m² -

* Rain latest hour (hover to see other rain measurements)
** Current wind speed in m/s (hover to see current wind gust speed)